Regional Weather Roundup
Issued by NWS

Home | Current Version | Previous Version | Text Only | Print | Product List | Glossary Off
Versions: 1 2 3 4 5 6 7 8 9 10 11 12 13 14 15 16 17 18 19 20 21 22 23 24 25 26 27 28 29 30 31 32 33 34 35 36 37 38 39 40 41 42 43 44 45 46 47 48 49 50

000
ASUS43 KDTX 231910
RWRMI
MICHIGAN HOURLY REGIONAL WEATHER ROUNDUP
NATIONAL WEATHER SERVICE DETROIT/PONTIAC MI
200 PM EST FRI FEB 23 2018

NOTE: "FAIR" INDICATES FEW OR NO CLOUDS BELOW 12,000 FEET WITH NO
SIGNIFICANT WEATHER AND/OR OBSTRUCTION TO VISIBILITY.

MIZ047>049-052>055-059>063-066>070-074>076-081>083-232000-
SOUTHEAST LOWER MICHIGAN

CITY           SKY/WX    TMP DP  RH WIND       PRES   REMARKS
ADRIAN         CLOUDY    46  44  93 W12       30.11S
ALMA           CLOUDY    42  42 100 W8        30.06S FOG
ANN ARBOR      CLOUDY    48  46  93 SW8       30.08S
BAD AXE        CLOUDY    40  40 100 W8        30.02F FOG     WCI  34
CARO           CLOUDY    44  43  97 SW14G21   30.03S
DETROIT CITY   CLOUDY    47  44  90 W13       30.07S
DETROIT        CLOUDY    48  45  89 SW14      30.08F
FLINT          CLOUDY    46  43  89 W15       30.06S
GROSSE ILE     CLOUDY    42  41  98 W7        30.07F FOG
HILLSDALE      CLOUDY    45  43  93 W13G24    30.09S
HOWELL         CLOUDY    46  45  97 W9        30.07R

CITY           SKY/WX    TMP DP  RH WIND       PRES   REMARKS
JACKSON        CLOUDY    46  44  93 SW17G25   30.10R
LAMBERTVILLE   CLOUDY    49  46  89 W12G17    30.10S
LANSING        CLOUDY    44  43  96 W15       30.09R FOG
LAPEER         CLOUDY    46  44  95 W13G20    30.04F
MASON          CLOUDY    46  42  85 W12G21    30.09R
MONROE         CLOUDY    49  46  88 W15G26    30.08F
MT. CLEMENS    CLOUDY    46  46 100 SW10      30.04F
PONTIAC        CLOUDY    45  45 100 W12G21    30.04F FOG
PORT HOPE        N/A     40  37  89 SW7       29.99F
PORT HURON     CLOUDY    43  41  93 SW7       30.05F
TRI CITIES     FOG       40  39  97 SW10      30.04F VSB 3/4 WCI  33
MIDLAND        CLOUDY    41  40  98 SW9       30.03F FOG
TROY           CLOUDY    46  44  93 SW9       30.07F
SAGINAW HB     CLOUDY    41  41 100 SW14      30.04S
$$
MIZ043>046-050>051-056>058-064>065-071>073-077>080-232000-
SOUTHWEST LOWER MICHIGAN

CITY           SKY/WX    TMP DP  RH WIND       PRES   REMARKS
BATTLE CREEK   CLOUDY    45  43  93 W14G23    30.11R FOG
BENTON HARBOR  CLOUDY    41  38  89 W14       30.17R
BIG RAPIDS     CLOUDY    39  37  90 W16G24    30.04S FOG     WCI  30
COLDWATER      CLOUDY    46  46 100 W14G24    30.12S
FREMONT        CLOUDY    40  35  84 W15       30.08S WCI  31
HOLLAND        CLOUDY    41  39  93 W12G23    30.14R
GRAND RAPIDS   CLOUDY    43  41  93 W17G30    30.10R FOG
IONIA          LGT RAIN  44  43  97 W12G20    30.07R
KALAMAZOO      CLOUDY    45  42  89 W16       30.14R
LUDINGTON      CLOUDY    37  37  97 W10G16    30.08R WCI  30
MARSHALL       CLOUDY    44  43  98 W18       30.11R FOG
MOUNT PLEASANT CLOUDY    42  40  94 W14       30.03F
MUSKEGON       CLOUDY    41  37  86 W13G20    30.11R
SOUTH HAVEN    CLOUDY    41  39  93 W12       30.16R
$$
MIZ016>042-232000-
NORTHERN LOWER MICHIGAN

CITY           SKY/WX    TMP DP  RH WIND       PRES   REMARKS
ALPENA         CLOUDY    41  37  86 SW9       29.97F
BEAVER ISLAND  CLOUDY    37  36  97 SW17G23   29.97S WCI  27
BELLAIRE       CLOUDY    38  38  99 SW6       30.01R WCI  33
CADILLAC       CLOUDY    37  37  98 W13G21    30.00R FOG     WCI  29
CHARLEVOIX     CLOUDY    38  38 100 SW16G25   30.01S WCI  29
FRANKFORT      CLOUDY    39  39  98 SW8G18    30.04S WCI  34
GAYLORD        CLOUDY    37  37 100 W16G24    29.96S WCI  28
GRAYLING       CLOUDY    38  38  97 W9        29.97F WCI  32
HARBOR SPRINGS CLOUDY    36  36  99 SW14G22   29.97S WCI  27
HOUGHTON LAKE  CLOUDY    37  36  96 SW9       29.99F FOG     WCI  30
MANISTEE       CLOUDY    39  36  89 SW14G20   30.06R WCI  31
OSCODA         CLOUDY    40  38  91 SW10G17   29.99F WCI  34
PELLSTON       CLOUDY    37  35  92 W18G24    29.96F WCI  27
ROGERS CITY    CLOUDY    40  37  87 W6        29.97F
TRAVERSE CITY  CLOUDY    40  36  86 W12       30.01R WCI  33
$$
MIZ007>008-015-232000-
EASTERN UPPER MICHIGAN

CITY           SKY/WX    TMP DP  RH WIND       PRES   REMARKS
KINROSS        MIX PCPN  35  33  92 W9        29.94F FOG     WCI  28
MACKINAC ISLAN CLOUDY    34  34 100 SW16G24   29.95S FOG     WCI  23
NEWBERRY       CLOUDY    34  33  96 W13       29.94S WCI  25
S. S. MARIE    CLOUDY    35  33  92 W5        29.94F WCI  31
MUNISING         N/A     38  31  76 W5        29.94R WCI  34
$$
MIZ004>006-011>014-085-232000-
CENTRAL UPPER MICHIGAN

CITY           SKY/WX    TMP DP  RH WIND       PRES   REMARKS
MANISTIQUE     CLOUDY    35  34  94 W5        29.95F WCI  31
ESCANABA       CLOUDY    37  32  82 W14       29.98R WCI  28
MENOMINEE      CLOUDY    39  33  79 VRB7      30.02R WCI  34
SAWYER-GWINN   CLOUDY    34  28  80 W9        29.94R WCI  26
$$
MIZ001>003-009>011-084-232000-
WESTERN UPPER MICHIGAN

CITY           SKY/WX    TMP DP  RH WIND       PRES   REMARKS
IRON MOUNTAIN  CLOUDY    35  30  82 W12       29.96R WCI  27
HOUGHTON       CLOUDY    29  23  78 W18G28    29.95R WCI  16
COPPER HARBOR    N/A     31  25  78 NW13G22   29.95R WCI  21
IRONWOOD       CLOUDY    29  24  82 W14       30.03R WCI  18
$$

ABBREVIATIONS USED IN REMARKS
   TC - TEMPERATURE IN CELSIUS
  WCI - WIND CHILL INDEX
   HX - HEAT INDEX
  VSB - VISIBILITY





USA.gov is the U.S. government's official web portal to all federal, state and local government web resources and services.